Simultaneous Nadir Overpasses (SNOs) Predictions

Prediction of SNOs between AURA and NPP Satellite Orbit:

Table of predicted SNOs for the next 14.0 days since TLE Epoch: 3/30/2024
Index Date (AURA) Time (AURA) Lat,Lon (AURA) SZA (AURA ) Date (NPP) Time (NPP) Lat,Lon (NPP) SZA (NPP ) Distance(km) Time Diff (sec)
1 03/31/2024 07:36:44 80.50, -27.18 86.34 03/31/2024 07:36:25 80.50, -27.09 86.34 1.65 19
2 03/31/2024 08:26:06 -80.58, 141.34 93.83 03/31/2024 08:27:07 -80.57, 141.27 93.86 1.46 61
3 04/02/2024 21:21:48 -80.45, -53.94 94.59 04/02/2024 21:21:09 -80.45, -53.94 94.56 0.20 39
4 04/02/2024 22:11:07 80.58, 115.10 85.17 04/02/2024 22:11:48 80.59, 115.25 85.12 2.77 41
5 04/05/2024 11:06:47 80.45, -80.11 84.41 04/05/2024 11:05:50 80.45, -80.08 84.45 0.65 57
6 04/05/2024 11:56:09 -80.54, 88.41 95.76 04/05/2024 11:56:32 -80.53, 88.33 95.76 1.68 23
7 04/08/2024 00:51:51 -80.29,-107.94 96.30 04/08/2024 00:50:37 -80.32,-107.98 96.24 2.82 74
8 04/08/2024 01:41:06 80.55, 62.30 83.24 04/08/2024 01:41:12 80.55, 62.42 83.22 2.35 6
9 04/10/2024 15:26:03 -80.52, 35.78 97.68 04/10/2024 15:25:54 -80.52, 35.73 97.67 1.03 9



Historial Predications of SNOs between AURA and NPP
